Current weather by "City, St" or "zip code"  
 
Advertise Here

Current Conditions: Dubois Municipal Airport, WY

Fair


54.0 F

Last Updated on Sep 16 2021, 8:33 pm MDT
Humidity: 26%
Wind Speed: NW 10.4 mph
Barometer 30.11 in
Dewpoint: 19.4 F
Visibility: 10.00 mi
Precip: --
Heat Index: NA
Wind Chill: 51 F
Current conditions at:

Dubois Municipal Airport, WY (KDUB)

Lat: 43.5484 Lon: 109.6903

Local Radar Image active severe weather and emergency alerts image image weather storm and storm spotter reports image weather observation monitoring service image
Local
Radar
Active
Alerts
Storm Reports Obs
Monitoring

Sign-up For Email & Text Message Weather Alert Notification Services



Advertise Here

Observation History for Dubois Municipal Airport, WY


Time Wind
(mph)
Vis
(mi)
Weather Precip (in) Temperature (F) Relative
Humidity
Wind
Chill
(F)
Heat
Index
(F)
Pressure
Air Dwpt altimeter
(in)
sea level
(mb)
Rmks
8:33 pm MDT NW 10.4 10.00 Fair -- 54.0 19.4 26% 51 NA 30.11 M
7:55 pm MDT NW 11.5 10.00 Fair -- 55.0 19.4 24% 52 NA 30.09 M
7:35 pm MDT W 10.4 10.00 Fair -- 55.0 21.2 26% 52 NA 30.07 M
6:55 pm MDT NW 10.4 10.00 Fair -- 61.0 21.2 22% 60 NA 30.06 M
6:35 pm MDT NW 13.8 10.00 Fair -- 61.0 21.2 22% 59 NA 30.05 M
5:55 pm MDT NW 20.7 G 27.6 10.00 Fair and Breezy -- 63.0 23.0 22% 61 NA 30.04 M
5:35 pm MDT NW 18.4 G 27.6 10.00 Fair -- 64.0 23.0 21% NA NA 30.03 M
4:55 pm MDT W 21.9 G 31.1 10.00 Partly Cloudy and Breezy -- 66.0 21.2 18% NA NA 30.01 M
3:55 pm MDT NW 23.0 G 31.1 10.00 Partly Cloudy and Breezy -- 66.0 24.8 21% NA NA 30.00 M
3:35 pm MDT NW 16.1 G 25.3 10.00 Mostly Cloudy -- 64.0 26.6 24% NA NA 30.00 M
2:55 pm MDT NW 23.0 G 31.1 10.00 Mostly Cloudy and Breezy -- 68.0 26.6 21% NA NA 29.99 M
2:35 pm MDT W 25.3 G 32.2 10.00 Partly Cloudy and Breezy -- 68.0 23.0 18% NA NA 29.98 M
1:55 pm MDT W 24.2 G 29.9 10.00 Mostly Cloudy and Breezy -- 66.0 26.6 22% NA NA 29.98 M
1:35 pm MDT W 21.9 G 33.4 10.00 Partly Cloudy and Breezy -- 66.0 26.6 22% NA NA 29.97 M
12:55 pm MDT W 26.5 G 38.0 10.00 Fair and Windy -- 66.0 26.6 22% NA NA 29.97 M
10:55 am MDT W 16.1 G 33.4 10.00 Partly Cloudy -- 64.0 26.6 24% NA NA 29.97 M
9:55 am MDT W 21.9 G 32.2 10.00 Fair and Breezy -- 63.0 24.8 24% 60 NA 29.97 M
8:55 am MDT W 18.4 G 29.9 10.00 Fair -- 61.0 23.0 23% 58 NA 29.97 M
8:35 am MDT W 16.1 G 21.9 10.00 Fair -- 59.0 23.0 25% 56 NA 29.97 M
7:55 am MDT NW 15.0 10.00 Fair -- 50.0 23.0 35% 45 NA 29.97 M
6:55 am MDT W 16.1 G 23.0 10.00 Fair -- 55.0 21.2 26% 51 NA 29.96 M
5:55 am MDT W 9.2 10.00 Fair -- 52.0 21.2 30% 49 NA 29.96 M
4:55 am MDT W 19.6 G 27.6 10.00 Fair -- 59.0 21.2 23% 55 NA 29.94 M
3:55 am MDT W 12.7 10.00 Fair -- 55.0 21.2 26% 52 NA 29.95 M

Regional Weather Observation


Jackson, Jackson Hole Airport, WY (KJAC)

Fair
50.0 F

Yellowstone Lake, WY (KP60)

NULL
42.0 F

Cody, WY (KCOD)

Overcast
47.0 F

Driggs, Driggs-Reed Memorial Airport, ID (KDIJ)

Fair
50.0 F

Hot Springs County Airport, WY (KHSG)

Fair
52.0 F

Alpine, WY (K46U)

A Few Clouds
54.0 F
Advertise Here


Advertise Here